GEFSSGP_con_prob3kmehi_030.txt.gz
EHI
0 0 0 0 0 0 0 0 0 0 0 0 0 0 0 0 0 0 0 0 0 1 5 22 42 42 26 11 3 0 0 0 0 0 0 0 0 0 0 0 0 0 0 0 0 0 0 0 0
0 0 0 0 0 0 0 0 0 0 0 0 0 0 0 0 0 0 0 0 1 3 7 26 52 57 41 21 8 2 0 0 0 0 0 0 0 0 0 0 0 0 0 0 0 0 0 0 0
0 0 0 0 0 0 0 0 0 0 0 0 0 0 0 0 0 0 0 0 1 4 9 32 64 75 62 40 19 6 1 0 0 0 0 0 0 0 0 0 0 0 0 0 0 0 0 0 0
0 0 0 0 0 0 0 0 0 0 0 0 0 0 0 0 1 1 0 0 1 5 13 38 70 84 77 61 36 15 4 0 0 0 0 0 0 0 0 0 0 0 0 0 0 0 0 0 0
0 0 0 0 0 0 0 0 0 0 0 0 0 0 0 2 3 3 1 0 4 12 26 49 76 87 85 74 53 28 10 2 0 0 0 0 0 0 0 0 0 0 0 0 0 0 0 0 0
0 0 0 0 0 0 0 0 0 0 0 0 0 0 0 2 5 3 1 0 5 19 37 58 78 86 86 79 63 40 17 5 1 1 0 0 0 0 0 0 0 0 0 0 0 0 0 0 0
0 0 0 0 0 0 0 0 0 0 0 0 0 0 0 1 2 2 1 1 4 14 31 48 64 74 76 72 62 43 20 6 3 2 1 0 0 0 1 1 1 0 0 0 0 0 0 0 0
0 0 0 0 0 0 0 0 0 0 1 1 0 0 0 0 1 4 8 8 6 7 16 29 42 51 55 54 51 39 20 6 3 3 2 1 0 0 1 2 1 0 0 0 0 1 2 1 1
0 0 0 0 0 0 0 0 0 3 6 6 2 0 0 1 6 14 24 26 19 12 13 20 26 29 32 34 33 27 15 6 3 2 2 1 0 0 0 1 1 0 1 3 6 9 8 4 3
0 0 0 0 0 0 0 0 0 4 11 9 3 0 1 3 9 21 37 46 37 21 15 17 20 20 21 20 15 10 6 3 1 1 1 1 0 0 0 0 0 0 1 5 12 17 14 6 3
0 0 0 0 0 0 0 0 0 3 6 6 3 1 1 2 7 18 37 55 51 30 16 14 16 16 13 8 4 2 1 1 0 0 0 0 0 0 0 0 0 0 3 8 15 19 15 6 2
0 0 0 0 0 0 0 0 0 0 1 2 3 2 1 1 4 11 29 53 60 44 23 13 12 10 5 1 0 1 0 0 0 0 0 0 0 0 0 0 0 3 11 20 25 22 14 5 1
0 0 0 0 0 0 0 0 0 0 2 4 6 4 1 1 3 7 23 50 67 63 46 28 17 9 5 5 4 3 2 1 0 0 0 1 2 2 2 1 2 8 22 36 40 30 15 5 1
0 0 0 0 0 0 0 0 0 1 5 10 11 8 5 4 5 8 22 47 70 77 70 57 40 26 23 27 26 24 22 17 11 8 8 9 14 18 15 9 10 20 36 49 49 37 20 9 7
0 0 0 0 0 0 0 0 0 0 6 15 20 18 17 16 16 19 30 50 71 81 83 79 68 58 55 58 61 61 57 46 35 30 29 33 42 48 44 36 36 45 57 63 57 43 28 19 17
0 0 0 0 0 0 0 0 0 1 7 20 30 35 39 42 43 45 53 64 75 83 85 85 82 79 78 79 81 82 75 63 49 43 47 56 67 74 75 72 71 74 78 76 65 49 35 27 23
0 0 0 0 0 0 0 0 0 2 10 25 39 52 65 72 73 75 77 78 80 82 81 80 79 80 82 83 83 81 72 59 46 38 40 49 63 76 86 90 90 88 84 77 65 50 37 27 20
0 0 0 0 0 0 0 0 0 3 11 28 48 67 82 88 86 85 82 78 75 74 72 72 72 74 76 77 78 77 69 58 48 37 26 27 40 59 74 82 85 83 77 69 59 47 35 25 18
0 0 0 0 0 0 0 0 0 2 10 30 56 77 87 87 81 74 67 62 60 60 60 62 64 65 66 66 64 63 60 56 53 45 29 20 25 39 51 60 69 73 69 62 54 44 34 25 20
0 0 0 0 0 0 0 0 0 1 10 31 58 76 81 76 67 57 46 40 40 40 40 43 45 45 44 42 39 37 37 40 43 40 30 20 20 26 33 42 54 62 61 57 51 45 36 27 21
0 0 0 0 0 0 0 0 0 2 11 26 46 59 60 54 46 37 27 21 20 19 18 19 21 21 19 17 16 16 17 21 25 24 19 15 16 22 28 35 43 49 51 51 49 46 39 26 17
0 0 0 0 0 0 0 0 0 3 9 18 26 31 30 27 23 16 11 8 7 7 7 9 11 10 7 6 7 8 9 11 11 11 10 8 10 17 22 27 33 38 41 41 39 37 31 20 12
0 0 0 0 0 0 0 0 0 2 5 9 11 10 9 8 6 4 2 2 3 5 8 12 13 10 7 5 5 4 5 5 5 6 5 4 4 7 11 17 23 29 29 26 22 19 16 10 6
0 0 0 0 0 0 0 0 0 1 2 3 3 2 1 1 0 0 0 1 3 6 10 13 13 10 8 6 4 3 1 1 1 2 1 1 1 2 4 9 14 17 17 14 10 6 4 2 1
0 0 0 0 0 0 0 0 0 0 0 0 0 0 0 0 1 1 1 1 3 5 8 11 11 10 8 6 4 2 1 0 0 0 0 0 0 0 1 3 5 6 7 7 5 1 0 0 0
0 0 0 0 0 0 0 0 0 0 0 0 0 0 0 0 1 2 2 2 2 3 5 8 9 8 7 5 2 1 0 0 0 0 0 0 0 0 0 0 0 1 2 3 2 0 0 0 0
0 0 0 0 0 0 0 0 0 0 0 0 0 0 0 0 1 1 2 1 0 1 2 5 6 6 5 3 1 0 0 0 0 0 0 0 0 0 0 0 0 0 0 1 0 0 0 0 0
0 0 0 0 0 0 0 0 0 0 0 0 0 0 0 0 0 0 0 0 0 0 1 2 3 2 2 1 1 1 0 0 0 0 0 0 0 0 0 0 0 0 0 0 0 0 0 0 0
0 0 0 0 0 0 0 0 0 0 0 0 0 0 0 0 0 0 0 0 0 0 0 1 1 0 1 1 2 2 1 0 0 0 0 0 0 0 0 0 0 0 0 0 0 0 0 0 0
0 0 0 0 0 0 0 0 0 0 0 0 0 0 0 0 0 0 0 0 0 0 0 0 0 0 1 2 3 2 1 0 0 0 0 0 0 0 0 0 0 0 0 0 0 0 0 0 0

GEFSSGP_con_prob3kmehi_036.txt.gz
EHI
0 0 0 0 0 0 0 0 0 0 0 0 0 0 0 0 0 0 0 0 0 0 0 1 3 5 6 4 2 1 2 4 4 3 2 1 0 0 0 0 0 0 0 0 0 0 0 0 0
0 0 0 0 0 0 0 0 0 0 0 0 0 0 0 0 0 0 0 0 0 0 0 2 5 9 10 8 6 4 4 4 4 3 3 2 1 0 0 0 0 0 0 0 0 0 0 0 0
0 0 0 0 0 0 0 0 0 0 0 0 0 0 0 0 0 0 0 0 0 0 0 4 11 14 15 14 12 9 6 4 3 3 3 3 2 0 0 0 0 0 0 0 0 0 0 0 0
0 0 0 0 0 0 0 0 0 0 0 0 0 0 0 0 0 0 0 0 0 0 0 7 17 22 21 20 19 17 12 8 5 4 3 2 1 0 0 0 0 0 0 0 0 0 0 0 0
0 0 0 0 0 0 0 0 0 0 0 0 0 0 0 0 0 0 0 0 0 0 0 9 25 31 29 28 28 27 23 16 9 5 2 1 0 0 0 0 0 0 0 0 0 0 0 0 0
0 0 0 0 0 0 0 0 0 0 0 0 0 0 0 0 0 0 0 0 1 3 3 10 25 35 35 34 34 33 30 22 12 5 1 0 0 0 0 0 0 0 0 0 0 0 0 0 0
0 0 0 0 0 0 0 0 0 0 0 0 0 0 0 0 0 0 0 0 3 8 10 12 19 29 35 35 36 34 30 22 12 5 1 0 0 0 0 0 0 0 0 0 0 0 0 0 0
0 0 0 0 0 0 0 0 0 0 0 0 0 0 0 0 0 0 0 1 5 11 15 16 18 24 29 33 37 37 30 22 14 6 1 0 0 0 0 0 0 0 0 0 0 0 0 0 0
0 0 0 0 0 0 0 0 0 0 0 0 0 0 1 2 1 0 0 0 3 9 13 16 20 24 28 34 39 39 32 24 16 9 3 0 0 0 0 0 0 0 0 0 0 0 0 0 0
0 0 0 0 0 0 0 0 0 0 0 0 0 1 4 5 2 0 0 0 1 4 7 11 16 24 31 36 37 36 31 23 18 12 5 1 0 0 0 0 0 0 0 0 0 0 0 1 1
0 0 0 0 0 0 0 0 0 0 0 0 0 3 8 9 4 0 0 0 0 1 3 6 11 20 28 31 29 28 25 21 16 11 6 2 0 0 0 0 0 0 0 0 0 0 1 2 3
0 0 0 0 0 0 0 0 0 0 0 0 2 7 12 10 4 1 0 0 0 0 1 3 7 15 21 22 18 16 18 17 13 10 7 5 3 1 1 1 0 0 0 0 1 1 2 4 5
0 0 0 0 0 0 0 0 0 0 0 1 3 8 11 8 4 1 1 2 3 2 1 2 6 11 13 12 9 8 10 11 10 8 8 10 8 4 3 2 1 1 1 2 3 4 5 5 6
0 0 0 0 0 0 0 0 0 0 1 3 4 7 8 5 3 2 2 6 8 7 4 4 5 7 8 7 5 4 4 5 5 4 5 8 9 6 3 3 2 3 4 6 6 6 7 7 7
0 0 0 0 0 0 0 0 0 1 3 6 9 11 10 7 5 4 4 8 14 14 11 7 6 6 5 5 4 3 2 2 2 2 3 4 4 3 2 1 2 6 11 12 9 7 7 9 10
0 0 0 0 0 0 0 1 2 5 10 14 18 22 22 19 16 14 14 16 22 25 22 18 14 11 8 7 6 7 7 6 6 6 5 4 3 3 4 3 5 12 19 19 15 12 12 13 14
0 0 0 0 0 0 0 3 7 14 22 29 32 35 38 38 35 34 34 35 37 38 35 32 27 23 20 18 17 18 19 17 16 15 13 9 7 9 11 10 11 19 27 27 24 23 21 19 18
0 0 0 0 0 0 1 4 10 20 31 38 43 47 51 51 46 45 48 49 47 42 38 36 32 29 29 30 29 28 25 22 20 19 16 12 10 12 16 17 17 25 33 34 34 33 27 23 20
0 0 0 0 0 0 1 3 6 14 25 34 43 51 55 50 42 40 42 42 38 31 27 24 22 21 24 27 26 23 19 15 14 13 11 8 7 8 11 14 18 25 33 36 38 36 31 25 22
0 0 0 0 0 0 0 1 2 6 13 23 34 43 46 39 30 26 26 24 21 17 13 10 9 10 12 13 12 9 7 6 6 5 3 2 2 2 4 6 11 16 21 25 29 30 28 25 23
0 0 0 0 0 0 0 0 0 3 9 16 22 29 31 26 18 13 12 11 9 8 5 3 3 4 4 5 4 2 1 1 2 1 0 0 0 0 0 1 3 6 9 12 15 19 21 20 18
0 0 0 0 0 0 0 0 0 2 7 10 12 15 16 13 9 5 4 4 4 3 1 1 2 3 3 3 3 1 0 0 0 0 0 0 0 0 0 0 1 1 2 4 7 11 14 13 12
0 0 0 0 0 0 0 0 0 1 3 4 4 4 5 5 3 2 2 1 1 0 0 1 2 3 3 3 2 1 0 0 0 0 0 0 0 0 0 0 0 0 0 1 3 6 9 10 10
0 0 0 0 0 0 0 0 0 0 0 0 0 0 0 1 1 0 0 0 0 0 1 2 2 2 2 2 1 0 0 0 0 0 0 0 0 0 0 0 0 0 0 0 1 2 4 6 7
0 0 0 0 0 0 0 0 0 0 0 0 0 0 0 0 0 0 0 0 0 0 1 2 2 1 1 1 0 0 0 0 0 0 0 0 0 0 0 0 0 0 0 0 0 0 1 3 3
0 0 0 0 0 0 0 0 0 0 0 0 0 0 0 0 0 0 0 0 0 0 1 2 2 1 0 0 0 0 0 0 0 0 0 0 0 0 0 0 0 0 0 0 0 0 0 1 1
0 0 0 0 0 0 0 0 0 0 0 0 0 0 0 0 0 0 0 0 0 0 1 2 2 1 0 0 0 0 0 0 0 0 0 0 0 0 0 0 0 0 0 0 0 0 0 0 0
0 0 0 0 0 0 0 0 0 0 0 0 0 0 0 0 0 0 0 0 0 0 0 1 1 0 0 0 0 0 0 0 0 0 0 0 0 0 0 0 0 0 0 0 0 0 0 0 0
0 0 0 0 0 0 0 0 0 0 0 0 0 0 0 0 0 0 0 0 0 0 0 0 0 0 0 0 0 0 0 0 0 0 0 0 0 0 0 0 0 0 0 0 0 0 0 0 0
0 0 0 0 0 0 0 0 0 0 0 0 0 0 0 0 0 0 0 0 0 0 0 0 0 0 0 0 0 0 0 0 0 0 0 0 0 0 0 0 0 0 0 0 0 0 0 0 0

GEFSSGP_con_prob3kmehi_042.txt.gz
EHI
0 0 0 0 0 0 0 0 0 0 0 0 0 0 0 0 0 0 0 0 0 1 2 2 1 0 0 1 4 5 6 8 6 2 0 0 0 0 0 0 0 0 0 0 0 0 0 0 0
0 0 0 0 0 0 0 0 0 0 0 0 0 0 0 0 0 0 0 0 0 0 1 1 0 0 0 2 5 7 8 8 6 2 0 0 0 0 0 0 0 0 0 0 0 0 0 0 0
0 0 0 0 0 0 0 0 0 0 0 0 0 0 0 0 0 0 0 0 0 0 1 2 1 0 0 1 3 5 6 7 5 2 0 0 0 0 0 0 0 0 0 0 0 0 0 0 0
0 0 0 0 0 0 0 0 0 0 0 0 0 0 0 0 0 0 0 0 0 0 1 2 1 0 0 0 0 1 3 4 3 1 0 0 0 0 0 0 0 0 0 0 0 0 0 0 0
0 0 0 0 0 0 0 0 0 0 0 0 0 0 0 0 0 0 0 0 0 0 0 1 2 1 0 0 0 1 2 2 2 2 1 0 0 0 0 0 0 0 0 0 0 0 0 0 0
0 0 0 0 0 0 0 0 0 0 0 0 0 0 0 0 0 0 0 0 0 0 0 1 1 1 0 0 1 1 1 1 3 4 2 0 0 0 0 0 0 0 0 0 0 0 0 0 0
0 0 0 0 0 0 0 0 0 0 0 0 0 0 0 0 0 0 0 0 0 0 0 0 0 0 0 1 2 2 1 1 2 3 3 2 2 1 0 0 0 0 0 0 0 0 0 0 0
0 0 0 0 0 0 0 0 0 0 0 0 0 0 1 2 2 0 0 0 0 0 0 0 0 0 0 2 3 3 2 2 2 3 3 4 3 2 1 1 2 1 0 0 0 0 0 0 0
0 0 0 0 0 0 0 0 0 0 0 0 0 1 5 10 9 4 1 1 0 0 0 0 0 0 0 1 1 1 2 1 1 2 2 2 2 1 1 3 4 3 0 0 0 0 0 0 0
0 0 0 0 0 0 0 0 0 0 0 0 1 5 13 20 17 10 4 2 1 0 0 0 0 0 0 0 0 0 1 2 2 1 1 0 0 0 0 3 5 3 1 0 0 0 0 0 0
0 0 0 0 0 0 0 0 0 0 0 0 5 15 24 26 20 12 7 3 1 0 0 0 1 2 1 1 1 1 2 4 5 4 3 2 1 1 0 2 3 3 2 1 2 2 1 0 0
0 0 0 0 0 0 0 0 0 0 0 1 12 29 36 28 17 11 7 4 1 0 0 1 3 4 5 4 4 3 4 6 7 7 5 3 3 2 2 4 5 4 4 6 6 5 4 2 1
0 0 0 0 0 0 0 0 0 0 1 5 18 36 40 28 17 12 9 6 3 1 1 4 6 9 12 13 11 8 6 6 7 6 3 2 1 2 4 7 7 7 10 14 15 12 11 10 7
0 0 0 0 0 0 0 0 0 1 3 7 20 34 37 27 19 16 14 9 5 2 3 7 9 14 20 21 17 12 8 6 5 3 2 1 1 3 6 7 8 11 18 25 26 21 20 19 16
0 0 0 0 0 0 0 0 2 4 5 10 22 34 39 32 22 16 14 11 7 4 5 8 10 16 23 23 18 13 7 4 3 3 3 2 2 4 7 8 9 16 26 37 38 33 33 33 29
0 0 0 0 0 0 0 2 8 11 13 19 29 39 43 36 26 17 12 10 8 5 6 8 9 14 21 23 19 14 9 6 5 4 3 2 1 2 6 8 10 17 29 40 44 46 50 51 50
0 0 0 0 0 0 0 4 15 22 25 30 36 40 42 40 35 26 15 11 9 7 8 11 12 14 18 20 18 15 13 11 8 5 4 2 0 1 3 5 8 13 23 34 39 49 60 65 66
0 0 0 0 0 0 0 5 17 27 30 33 36 38 40 44 47 41 28 19 16 15 15 17 18 17 17 16 15 15 12 9 6 5 3 1 0 0 1 3 6 10 16 26 35 44 56 66 70
0 0 0 0 0 0 0 4 13 21 25 30 34 35 40 50 60 58 49 39 34 33 28 24 20 17 13 10 11 11 7 4 3 2 2 1 0 1 1 2 4 6 10 19 29 38 44 54 61
0 0 0 0 0 0 0 3 6 11 19 27 35 39 43 56 68 71 67 60 55 49 38 27 19 14 8 4 5 6 5 3 2 2 2 1 1 2 2 2 2 2 5 9 18 28 32 38 46
0 0 0 0 0 0 0 1 1 4 13 26 39 48 55 63 71 72 70 66 59 49 37 25 18 14 8 3 3 5 6 5 4 4 3 2 3 3 2 1 0 0 1 3 8 15 19 24 30
0 0 0 0 0 0 0 0 0 2 8 20 36 51 59 64 66 63 58 53 46 37 28 21 18 18 16 11 10 10 9 7 4 4 4 4 3 3 2 1 0 0 0 0 2 4 8 13 17
0 0 0 0 0 0 0 0 0 1 4 11 25 40 48 51 51 46 39 32 27 22 19 18 21 28 28 24 20 16 11 7 5 5 4 3 2 1 1 0 0 0 0 0 0 1 4 7 8
0 0 0 0 0 0 0 0 0 1 2 5 14 26 34 35 34 29 22 17 13 13 16 21 31 42 46 41 33 25 17 11 8 6 3 1 0 0 0 0 0 0 0 0 0 0 1 3 4
0 0 0 0 0 0 0 0 0 0 1 4 10 17 22 23 21 17 13 9 7 12 20 28 41 54 58 54 47 39 29 19 12 8 3 0 0 0 0 0 0 0 0 0 0 0 0 1 1
0 0 0 0 0 0 0 0 0 0 2 4 8 11 13 13 11 9 7 4 4 10 18 28 41 52 57 56 54 50 39 25 16 12 6 2 0 0 0 0 0 0 0 0 0 0 0 0 0
0 0 0 0 0 0 0 0 0 0 1 2 3 4 6 6 6 5 3 1 1 4 10 18 28 37 41 43 44 42 35 26 20 17 12 7 4 2 1 0 0 0 0 0 0 0 0 0 0
0 0 0 0 0 0 0 0 0 0 0 0 0 1 1 2 2 1 1 0 0 1 4 8 12 17 20 22 24 22 20 19 18 18 17 13 10 6 2 0 0 0 0 0 0 0 0 0 0
0 0 0 0 0 0 0 0 0 0 0 0 0 0 0 0 0 0 0 0 0 0 1 2 2 3 5 8 9 9 9 10 10 13 15 14 12 7 2 0 0 0 0 0 0 0 0 0 0
0 0 0 0 0 0 0 0 0 0 0 0 0 0 0 0 0 0 0 0 0 0 0 0 0 0 1 3 3 4 5 5 6 8 10 11 10 6 1 0 0 0 0 0 0 0 0 0 0

GEFSSGP_con_prob3kmehi_048.txt.gz
EHI
0 0 0 2 8 9 4 1 0 0 0 0 0 0 1 2 1 0 1 16 31 20 9 18 18 10 2 0 0 0 0 0 0 0 0 0 0 0 0 0 0 0 0 0 0 0 0 0 0
0 0 0 2 5 5 2 0 0 0 0 0 0 0 0 1 0 0 2 15 25 15 6 13 16 10 3 0 0 0 0 0 0 0 0 0 0 0 0 0 0 0 0 0 0 0 0 0 0
0 0 0 1 2 1 0 0 0 0 0 0 0 0 0 0 0 0 2 10 13 7 3 11 14 8 1 0 0 0 0 0 0 0 0 0 0 0 0 0 0 0 0 0 0 0 0 0 0
0 0 0 0 0 0 0 0 0 0 0 0 0 0 0 0 0 0 1 3 5 4 5 10 11 5 0 0 0 0 0 0 0 0 0 0 0 0 0 0 0 0 0 0 0 0 0 0 0
0 0 0 0 0 0 0 0 0 0 0 0 0 0 0 0 0 0 0 1 6 10 10 8 8 4 0 0 0 0 0 0 0 0 0 0 0 0 0 0 0 0 0 0 0 0 0 0 0
0 0 0 0 0 0 0 0 0 0 0 0 0 0 0 0 0 0 0 1 10 19 15 8 6 3 0 0 0 0 0 0 0 0 0 0 0 0 0 0 0 0 0 0 0 0 0 1 1
0 0 0 0 0 0 0 0 0 0 0 0 0 0 0 0 0 0 0 1 13 26 20 7 4 2 0 0 0 0 0 0 0 0 0 0 0 0 2 4 5 4 2 2 2 2 3 5 6
0 0 0 0 0 0 0 0 0 0 0 0 0 1 1 0 0 0 0 2 14 26 20 7 3 1 0 1 1 0 1 1 0 0 0 0 0 4 12 18 19 15 11 11 12 10 11 15 17
0 0 0 0 0 0 0 0 0 0 0 1 4 5 2 0 0 0 1 2 12 21 18 12 10 5 1 6 9 7 4 5 4 4 7 7 4 6 20 30 33 33 32 32 32 29 25 24 23
0 0 0 0 0 0 0 0 0 0 1 5 12 12 5 2 2 2 2 6 13 18 17 21 25 14 4 15 26 18 13 21 18 16 25 27 15 7 15 32 46 52 50 46 43 38 29 21 15
0 0 0 0 0 0 0 0 0 1 3 7 15 16 11 10 12 10 10 17 23 20 15 26 37 26 12 24 36 26 25 42 41 37 47 50 34 15 13 34 56 62 55 47 42 35 26 15 8
0 0 0 0 0 0 0 0 0 2 3 7 11 14 16 21 26 24 23 32 35 25 17 29 47 42 25 31 39 32 31 47 55 59 63 64 56 38 31 47 63 63 55 49 44 41 35 24 15
0 0 0 0 0 0 0 0 0 2 4 4 7 12 19 29 37 38 38 45 47 34 26 41 61 62 49 46 47 40 38 46 59 66 68 70 70 61 54 62 69 63 55 52 51 50 49 43 33
0 0 0 0 0 0 0 0 0 2 4 3 4 11 20 32 43 50 55 61 58 45 43 60 76 81 75 65 55 49 47 54 62 66 68 71 73 71 66 65 66 62 55 52 50 49 52 52 47
0 0 0 0 0 0 0 0 0 1 3 3 5 10 22 36 47 57 70 75 67 60 66 75 82 88 89 77 63 54 54 60 68 70 70 70 70 67 61 55 53 52 51 49 45 44 48 50 48
0 0 0 0 0 0 0 0 0 1 1 3 5 12 27 42 49 56 72 80 77 79 85 85 83 88 91 85 72 58 54 60 65 66 68 68 62 55 50 45 42 40 40 38 35 36 40 42 42
0 0 0 0 0 0 0 0 0 1 1 2 5 15 32 47 50 55 66 78 85 91 93 90 88 90 91 87 74 58 52 52 49 49 57 58 47 40 37 34 30 29 30 29 26 27 29 30 31
0 0 0 0 0 0 0 0 0 1 2 3 6 17 35 49 55 58 62 71 85 93 93 92 92 89 85 78 65 53 45 38 29 33 43 42 31 25 23 20 17 16 18 20 20 18 18 19 21
0 0 0 0 0 0 0 0 0 1 3 6 10 21 37 53 62 67 68 73 82 89 91 90 87 81 74 67 56 48 40 26 18 23 31 27 18 14 11 9 9 7 7 9 10 10 10 12 14
0 0 0 0 0 0 0 0 1 3 7 13 21 28 42 58 69 74 76 79 82 86 88 85 80 73 66 59 50 44 35 21 14 19 25 21 14 10 8 7 5 4 3 2 3 4 4 5 6
0 0 0 0 0 0 0 0 3 9 15 22 28 34 46 61 71 74 75 77 81 84 83 80 77 71 63 54 45 40 34 24 19 22 27 25 17 10 9 7 5 4 3 1 1 2 2 1 1
0 0 0 0 0 0 0 0 5 17 26 29 32 38 49 58 65 69 69 69 73 75 75 75 76 73 64 56 50 48 44 39 37 37 38 34 23 13 10 10 9 7 4 2 2 2 1 0 0
0 0 0 0 0 0 0 0 6 19 31 35 37 44 52 54 58 62 62 60 59 60 63 67 73 74 70 66 63 62 61 59 59 57 51 42 30 18 11 13 15 13 8 4 3 2 1 0 0
0 0 0 0 0 0 0 1 7 21 37 42 44 48 51 51 51 50 50 48 46 48 54 61 69 74 74 74 73 74 75 74 73 69 61 49 38 28 21 21 24 19 11 6 3 1 0 0 0
0 0 0 0 0 0 0 3 12 26 39 45 45 44 42 41 39 35 33 32 33 37 46 55 63 69 72 74 77 80 80 79 77 75 69 61 51 44 40 36 30 21 12 6 3 1 0 0 0
0 0 0 0 0 0 2 7 17 24 29 33 34 31 27 23 22 20 17 17 18 21 27 36 44 51 55 60 67 70 71 72 74 74 72 69 63 57 54 44 31 21 12 5 2 1 0 0 0
0 0 0 0 0 0 3 10 15 15 14 15 17 14 11 9 9 8 7 6 6 7 9 13 19 25 28 32 39 42 46 52 56 59 61 63 61 58 54 44 32 22 14 7 3 1 0 0 0
0 0 0 0 0 0 2 8 14 14 10 8 6 4 2 2 2 1 1 1 1 1 1 1 3 6 7 10 13 15 19 25 30 34 40 43 45 46 44 39 31 24 16 10 5 2 1 0 0
0 0 0 0 0 0 0 6 15 16 11 6 2 1 0 0 0 0 0 0 0 0 0 0 0 0 1 1 2 3 4 6 9 13 16 19 24 29 30 28 25 19 12 8 5 3 1 0 0
0 0 0 0 0 0 0 5 14 15 9 4 1 0 0 0 0 0 0 0 0 0 0 0 0 0 0 0 0 1 1 1 2 3 4 6 11 17 20 21 17 12 8 5 3 2 1 0 0

GEFSSGP_con_prob3kmehi_054.txt.gz
EHI
0 0 0 0 0 1 1 1 0 0 0 0 0 0 0 0 0 0 0 2 13 30 42 55 61 47 22 5 0 0 0 0 0 0 0 0 0 0 0 0 0 0 0 0 0 0 0 0 0
0 0 0 0 0 0 0 0 0 0 0 0 0 0 0 0 0 0 0 5 21 41 53 62 69 58 33 12 3 0 0 0 0 0 0 0 0 0 0 0 0 0 0 0 0 0 0 0 0
0 0 0 0 0 0 0 0 0 0 0 0 0 0 0 0 0 0 1 10 28 45 56 69 78 71 50 27 12 5 2 0 0 0 0 0 0 0 0 0 0 0 0 0 0 0 0 0 0
0 0 0 0 0 0 0 0 0 0 0 0 0 0 0 2 3 3 4 12 27 39 52 71 85 81 65 44 27 15 8 3 0 0 0 0 0 0 0 0 0 0 0 0 0 0 0 0 0
0 0 0 0 0 0 0 0 0 0 0 0 0 0 1 6 11 9 5 11 24 37 51 72 87 86 72 55 39 27 16 6 1 0 0 0 0 0 0 0 0 0 0 0 0 0 0 0 0
0 0 0 0 0 0 0 0 0 0 0 0 0 0 2 9 15 10 4 7 20 35 47 63 76 77 68 56 43 31 18 7 1 0 0 0 0 0 0 0 0 0 0 0 0 0 0 0 0
0 0 0 0 0 0 0 0 0 0 0 0 0 0 1 6 10 8 5 7 16 27 37 48 54 54 50 44 36 25 13 4 1 0 0 0 0 0 0 0 0 0 0 0 0 0 0 0 0
0 0 0 0 0 0 0 0 0 2 2 2 0 0 0 2 7 13 15 15 19 22 27 34 35 32 29 26 22 15 6 2 0 0 0 0 0 0 0 0 0 0 0 1 2 2 1 0 0
0 0 0 0 0 0 0 0 1 4 7 6 4 2 0 3 13 28 37 34 29 23 22 26 27 23 17 13 10 5 2 0 0 0 0 0 0 0 0 0 1 1 2 3 6 7 5 3 2
0 0 0 0 0 0 0 0 1 4 7 10 9 6 4 7 19 38 55 55 40 25 20 21 23 21 15 9 5 2 0 0 0 1 1 0 0 0 0 0 2 3 3 3 6 9 8 7 7
0 0 0 0 0 0 0 0 1 2 4 7 9 9 8 10 18 35 56 63 49 31 21 18 19 18 12 7 4 2 0 0 0 1 1 0 0 0 0 1 1 3 2 2 3 5 7 8 10
0 0 0 0 0 0 0 0 0 1 2 4 7 9 9 9 13 25 44 59 56 42 25 16 13 12 9 5 4 2 2 2 3 2 2 2 2 1 0 0 0 1 1 1 3 3 4 5 6
0 0 0 0 0 0 0 0 0 1 2 6 9 10 9 9 10 18 34 53 63 53 35 23 17 13 10 8 8 7 6 8 9 8 7 8 7 3 1 0 0 0 1 2 3 3 2 2 2
0 0 0 0 0 0 0 0 1 3 6 11 12 11 11 11 13 21 35 51 62 60 50 41 35 29 25 25 26 22 16 15 15 15 17 18 16 9 4 1 0 1 1 1 1 1 1 1 0
0 0 0 0 0 0 0 0 1 5 12 16 16 14 13 14 19 29 41 51 57 60 61 58 55 50 47 49 49 43 33 27 25 24 25 29 26 16 8 4 2 1 2 1 0 0 0 0 0
0 0 0 0 0 0 0 0 1 7 15 20 22 21 21 21 24 32 42 50 55 58 62 65 64 62 61 63 61 55 47 40 34 29 28 32 29 19 11 7 5 3 2 2 0 0 0 0 0
0 0 0 0 0 0 1 2 5 11 18 23 29 33 35 33 32 34 41 48 53 55 58 61 63 62 62 61 57 52 44 36 30 26 25 25 23 16 11 8 5 4 2 1 0 0 0 0 0
0 0 0 0 0 0 1 5 11 18 25 29 35 41 43 42 39 38 41 45 49 49 49 51 53 53 51 49 45 40 31 21 17 16 15 15 13 10 7 5 3 2 1 0 0 0 0 0 0
0 0 0 0 0 0 1 6 15 22 27 31 36 41 43 42 40 37 37 40 41 39 37 36 35 34 33 31 29 25 18 10 7 7 6 7 6 5 5 3 1 0 0 0 0 0 0 0 0
0 0 0 0 0 0 0 4 11 18 24 28 34 39 41 39 35 30 28 28 28 27 24 21 18 18 16 14 12 11 8 5 3 3 2 2 2 3 3 2 1 0 0 0 0 0 0 0 0
0 0 0 0 0 0 0 2 6 12 20 28 34 36 35 32 27 22 18 15 14 15 14 12 10 8 6 4 4 5 6 5 4 3 1 0 1 1 2 1 0 0 0 0 0 0 0 0 0
0 0 0 0 0 0 0 0 2 7 16 23 26 26 23 19 16 13 9 6 7 8 9 8 5 3 2 2 3 5 7 6 5 2 0 0 0 1 1 1 0 0 0 0 0 0 0 0 0
0 0 0 0 0 0 0 0 1 4 9 11 11 12 10 7 6 4 3 2 3 4 5 4 2 1 0 1 3 5 5 4 2 1 0 0 0 0 1 1 1 0 0 0 0 0 0 0 0
0 0 0 0 0 0 0 0 0 1 3 2 2 2 2 1 1 1 0 0 0 1 2 2 1 0 0 0 1 1 1 1 0 0 0 0 0 0 0 1 1 1 0 0 0 0 0 0 0
0 0 0 0 0 0 0 0 0 0 0 0 0 0 0 0 0 0 0 0 0 0 0 0 0 0 0 0 0 0 0 0 0 0 0 0 0 0 0 1 1 1 0 0 0 0 0 0 0
0 0 0 0 0 0 0 0 0 0 0 0 0 0 0 0 0 0 0 0 0 0 0 0 0 0 0 0 0 0 0 0 0 0 0 0 0 0 0 0 0 0 0 0 0 0 0 0 0
0 0 0 0 0 0 0 0 0 0 0 0 0 0 0 0 0 0 0 0 0 0 0 0 0 0 0 0 0 0 0 0 0 0 0 0 0 0 0 0 0 0 0 0 0 0 0 0 0
0 0 0 0 0 0 0 0 0 1 0 0 0 0 0 0 0 0 0 0 0 0 0 0 0 0 0 0 0 0 0 0 0 0 0 0 0 0 0 0 0 0 0 0 0 0 0 0 0
0 0 0 0 0 0 0 0 0 0 0 0 0 0 0 0 0 0 0 0 0 0 0 0 0 0 0 0 0 0 0 0 0 0 0 0 0 0 0 0 0 0 0 0 0 0 0 0 0
0 0 0 0 0 0 0 0 0 0 0 0 0 0 0 0 0 0 0 0 0 0 0 0 0 0 0 0 0 0 0 0 0 0 0 0 0 0 0 0 0 0 0 0 0 0 0 0 0

GEFSSGP_con_prob3kmehi_060.txt.gz
EHI
0 0 0 0 0 0 0 0 0 0 0 0 0 0 0 0 1 0 0 0 5 12 9 5 6 7 5 3 3 3 4 5 4 2 1 0 0 0 0 0 0 0 0 0 0 0 0 0 0
0 0 0 0 0 0 0 0 0 0 0 0 0 0 0 0 1 0 0 0 7 14 10 7 12 13 10 8 7 4 4 4 3 1 0 0 0 0 0 0 0 0 0 0 0 0 0 0 0
0 0 0 0 0 0 0 0 0 0 0 0 0 0 0 0 0 0 0 3 11 17 12 13 25 27 22 19 15 9 5 3 2 1 0 0 0 0 0 0 0 0 0 0 0 0 0 0 0
0 0 0 0 0 0 0 0 0 0 0 0 0 0 0 0 0 0 1 6 16 20 17 25 42 44 39 36 29 20 11 6 3 2 1 0 0 0 0 0 0 0 0 0 0 0 0 0 0
0 0 0 0 0 0 0 0 0 0 0 0 0 0 0 0 1 1 3 9 22 30 31 41 57 60 54 51 43 31 22 14 8 4 2 0 0 0 0 0 0 0 0 0 0 0 0 0 0
0 0 0 0 0 0 0 0 0 0 0 0 0 0 0 0 1 3 7 14 29 44 51 58 68 70 66 60 51 40 30 21 12 5 2 1 0 0 0 0 0 0 0 0 0 0 0 0 0
0 0 0 0 0 0 0 0 0 0 0 0 0 0 0 2 4 7 13 22 35 51 62 69 71 71 68 62 54 45 34 22 11 5 2 1 0 0 0 0 0 0 0 0 0 0 0 0 0
0 0 0 0 0 0 0 0 0 0 0 0 0 0 3 10 15 17 22 31 39 48 58 66 67 65 61 57 52 44 31 17 8 4 2 1 0 0 0 0 0 0 0 0 0 0 0 0 0
0 0 0 0 0 0 0 0 0 0 0 0 0 1 12 29 36 34 35 39 42 43 47 53 57 57 54 50 43 33 21 11 6 3 2 1 1 1 0 0 0 0 0 0 0 0 0 0 0
0 0 0 0 0 0 0 0 0 0 0 0 1 8 29 51 56 48 41 39 40 38 38 41 45 49 49 43 32 21 13 8 5 3 3 2 2 2 1 0 0 0 0 0 0 0 0 0 0
0 0 0 0 0 0 0 0 0 0 0 0 2 17 48 68 67 56 44 35 35 36 36 38 42 45 43 36 27 19 13 9 7 5 5 5 3 2 1 0 0 1 1 1 0 0 0 0 1
0 0 0 0 0 0 0 0 0 0 0 1 5 24 56 72 67 59 50 39 36 37 38 42 45 43 38 32 27 21 15 11 9 8 7 7 5 2 1 1 1 2 2 2 1 0 1 2 2
0 0 0 0 0 0 0 0 0 0 0 2 10 29 53 62 58 54 52 46 42 40 39 41 43 39 33 29 26 22 16 12 10 9 9 8 7 4 2 2 2 2 2 2 1 1 1 2 4
0 0 0 0 0 0 0 0 2 2 2 6 18 33 44 46 43 41 43 45 44 41 39 38 37 33 27 23 22 20 15 12 12 10 9 9 9 8 5 2 1 1 1 1 1 1 1 1 2
0 0 0 0 0 0 0 2 5 7 8 15 25 31 34 35 32 29 30 36 39 39 38 37 34 28 22 18 18 17 14 13 12 11 9 9 10 9 7 3 0 0 0 0 1 1 1 0 1
0 0 0 0 0 0 0 3 8 10 14 21 26 26 27 28 26 22 22 29 34 35 33 32 30 26 22 19 18 16 12 10 10 10 9 10 9 9 7 4 1 0 0 0 1 2 2 1 0
0 0 0 0 0 0 1 4 7 9 14 21 23 23 23 24 22 19 20 27 31 30 28 26 25 23 21 19 18 16 13 11 9 8 8 9 8 7 7 5 2 1 0 0 1 2 2 1 0
0 0 0 0 0 0 2 5 7 8 13 19 21 21 21 19 16 15 18 23 26 25 23 21 19 17 15 13 13 15 15 13 10 7 6 6 6 7 6 5 3 1 1 1 1 1 1 0 0
0 0 0 0 0 0 2 4 6 8 12 16 16 16 15 15 12 11 13 17 18 18 16 13 10 8 7 7 9 11 12 11 8 5 3 3 3 4 4 4 4 3 2 2 1 0 0 0 0
0 0 0 0 0 0 1 3 5 6 7 9 9 7 8 10 10 9 8 10 10 9 7 4 3 3 3 4 5 5 6 5 4 2 1 1 1 2 3 3 4 3 2 2 1 0 0 0 0
0 0 0 0 0 0 1 2 4 3 3 3 3 2 3 6 7 6 4 4 3 3 1 0 0 1 1 1 1 1 1 1 1 0 0 0 0 1 1 2 2 1 1 1 0 0 0 0 0
0 0 0 0 0 0 0 1 2 2 1 1 1 0 1 2 2 2 1 1 0 0 0 0 0 0 0 0 0 0 0 0 0 0 0 0 0 0 0 1 1 0 0 0 0 0 0 0 0
0 0 0 0 0 0 0 0 0 0 0 0 0 0 0 0 0 0 0 0 0 0 0 0 0 0 0 0 0 0 0 0 0 0 0 0 0 0 0 0 0 0 0 0 0 0 0 0 0
0 0 0 0 0 0 0 0 0 0 0 0 0 0 0 0 0 0 0 0 0 0 0 0 0 0 0 0 0 0 0 0 0 0 0 0 0 0 0 0 0 0 0 0 0 0 0 0 0
0 0 0 0 0 0 0 0 0 0 0 0 0 0 0 0 0 0 0 0 0 0 0 0 0 0 0 0 0 0 0 0 0 0 0 0 0 0 0 0 0 0 0 0 0 0 0 0 0
0 0 0 0 0 0 0 0 0 0 0 0 0 0 0 0 0 0 0 0 0 0 0 0 0 0 0 0 0 0 0 0 0 0 0 0 0 0 0 0 0 0 0 0 0 0 0 0 0
0 0 0 0 0 0 0 0 0 0 0 0 0 0 0 0 0 0 0 0 0 0 0 0 0 0 0 0 0 0 0 0 0 0 0 0 0 0 0 0 0 0 0 0 0 0 0 0 0
0 0 0 0 0 0 0 0 0 0 0 0 0 0 0 0 0 0 0 0 0 0 0 0 0 0 0 0 0 0 0 0 0 0 0 0 0 0 0 0 0 0 0 0 0 0 0 0 0
0 0 0 0 0 0 0 0 0 0 0 0 0 0 0 0 0 0 0 0 0 0 0 0 0 0 0 0 0 0 0 0 0 0 0 0 0 0 0 0 0 0 0 0 0 0 0 0 0
0 0 0 0 0 0 0 0 0 0 0 0 0 0 0 0 0 0 0 0 0 0 0 0 0 0 0 0 0 0 0 0 0 0 0 0 0 0 0 0 0 0 0 0 0 0 0 0 0

GEFSSGP_con_prob3kmehi_066.txt.gz
EHI
0 0 0 0 0 0 0 0 0 0 0 0 0 0 0 0 0 1 3 3 9 28 39 25 7 1 0 3 9 12 13 13 14 15 13 8 4 1 0 0 0 0 0 0 0 0 0 0 0
0 0 0 0 0 0 0 0 0 0 0 0 0 0 0 0 0 1 3 4 10 28 38 26 10 2 1 4 9 12 13 14 15 15 13 8 4 1 0 0 0 0 0 0 0 0 0 0 0
0 0 0 0 0 0 0 0 0 0 0 0 0 0 0 0 0 2 4 5 11 23 32 30 16 4 1 4 9 12 14 15 15 13 10 7 3 1 0 0 0 0 0 0 0 0 0 0 0
0 0 0 0 0 0 0 0 0 0 0 0 0 0 0 0 1 3 4 5 9 13 23 32 22 6 1 3 7 11 12 13 12 10 8 6 4 2 1 1 1 0 0 0 0 0 0 0 0
0 0 0 0 0 0 0 0 0 0 0 0 0 0 1 2 3 3 3 3 3 4 16 31 25 9 3 4 6 8 8 8 8 9 8 6 5 3 1 1 1 0 0 0 0 0 0 0 0
0 0 0 0 0 0 0 0 0 0 0 0 0 0 3 6 6 4 4 3 1 1 12 26 23 11 6 5 5 5 6 6 7 9 9 7 5 3 1 0 0 0 0 0 0 0 0 0 0
0 0 0 0 0 0 0 0 0 0 0 0 0 0 5 14 17 14 10 5 2 1 7 16 15 9 7 5 4 4 4 6 7 9 9 7 4 2 0 0 0 0 0 0 0 0 0 0 0
0 0 0 0 0 0 0 0 0 0 0 0 0 0 9 27 39 36 26 14 6 3 4 6 7 6 4 3 4 5 6 8 9 10 10 7 4 1 0 1 1 1 0 0 0 0 0 0 0
0 0 0 0 0 0 0 0 0 0 0 0 1 4 20 46 63 62 51 33 18 11 6 4 5 5 3 4 8 9 9 11 12 13 14 11 6 3 1 4 7 4 0 0 0 0 0 0 0
0 0 0 0 0 0 0 0 0 0 0 0 2 8 26 51 69 73 66 52 37 25 16 9 8 8 7 8 12 12 12 14 14 16 20 19 15 10 6 9 13 7 2 1 1 0 0 0 1
0 0 0 0 0 0 0 0 0 1 1 2 4 10 21 38 54 64 65 59 49 37 25 19 18 19 17 15 15 16 19 21 20 24 32 34 31 26 19 17 16 12 8 7 7 6 3 2 2
0 0 0 0 0 0 0 0 1 2 4 6 8 11 17 25 36 49 57 59 52 41 32 31 35 41 39 33 28 26 28 31 34 39 45 47 47 42 35 30 23 19 17 17 16 14 8 5 5
0 0 0 0 0 0 0 1 2 4 6 9 15 20 24 28 35 45 54 57 53 44 39 42 52 59 60 55 46 35 34 40 47 52 52 51 52 48 43 40 32 24 23 22 20 16 12 8 6
0 0 0 0 0 0 1 2 5 7 8 14 24 35 41 44 47 51 55 56 50 44 43 48 55 61 63 60 49 38 36 44 52 54 52 50 49 46 43 41 34 27 24 22 17 13 11 9 6
0 0 0 0 0 0 1 3 8 10 13 21 32 44 54 59 59 58 57 54 47 43 43 45 46 49 52 49 42 36 37 43 48 49 47 44 41 40 39 37 32 28 25 19 13 10 10 8 4
0 0 0 0 0 0 0 3 9 12 16 24 33 44 54 61 62 60 56 51 47 43 43 42 38 38 40 38 34 31 32 35 40 40 37 33 31 31 33 32 28 28 25 17 10 7 7 6 4
0 0 0 0 0 0 1 3 7 10 13 19 28 37 46 53 55 54 51 48 46 46 46 44 38 33 30 28 25 23 24 27 29 30 27 24 22 23 26 26 23 22 20 14 8 5 5 4 2
0 0 0 0 0 0 2 4 5 6 9 13 18 26 32 38 41 40 39 40 41 43 44 41 34 27 24 21 18 16 16 18 19 18 17 16 16 18 20 20 16 15 12 9 7 5 4 3 1
0 0 0 0 0 0 2 4 4 4 6 7 9 13 17 20 23 25 26 27 30 31 29 24 20 16 15 14 12 9 8 9 9 9 8 8 10 14 15 14 12 11 9 7 6 5 3 2 1
0 0 0 0 0 0 1 2 3 2 2 3 5 8 10 11 12 12 13 15 16 16 12 8 7 6 6 5 4 3 2 2 2 2 3 3 5 8 9 9 8 7 6 5 5 4 2 1 1
0 0 0 0 0 0 0 1 1 1 1 2 4 7 8 8 6 4 4 5 6 5 4 2 3 2 1 0 0 0 0 0 0 0 0 1 1 3 4 5 5 5 4 2 3 3 3 1 1
0 0 0 0 0 0 0 0 0 0 0 1 3 4 4 3 2 1 0 1 1 1 1 2 2 1 0 0 0 0 1 0 0 0 0 0 0 0 2 3 5 5 3 1 1 1 2 3 2
0 0 0 0 0 0 0 0 1 0 0 0 1 1 1 0 0 0 0 0 0 0 1 2 2 1 0 0 0 0 0 0 0 0 0 0 0 0 1 3 4 5 4 3 3 3 3 3 2
0 0 0 0 0 0 0 1 2 1 0 0 0 0 0 0 0 0 0 0 0 0 0 1 1 1 0 0 0 0 0 0 0 0 0 0 0 0 1 2 3 5 6 7 7 7 5 3 2
0 0 0 0 0 0 0 2 5 4 1 0 0 0 0 0 0 0 0 0 0 0 0 0 0 0 0 0 1 0 0 0 0 0 0 0 0 0 0 1 2 3 4 6 7 8 6 4 4
0 0 0 0 0 0 0 3 6 4 1 0 0 0 0 0 0 0 0 0 0 0 0 0 0 0 0 0 0 0 0 0 0 0 0 0 0 0 0 0 0 1 2 2 4 5 6 6 7
0 0 0 0 0 0 0 1 2 2 1 0 0 0 0 0 0 0 0 0 0 0 0 0 0 0 0 0 0 0 0 0 0 0 0 0 0 0 0 0 0 0 0 1 2 3 4 6 7
0 0 0 0 0 0 0 0 0 0 0 0 0 0 0 0 0 0 0 0 0 0 0 0 0 0 0 0 0 0 0 0 0 0 0 0 1 1 0 0 0 0 0 0 1 1 1 2 3
0 0 0 0 0 0 0 0 0 0 0 0 0 0 0 0 0 0 0 0 0 0 0 0 0 0 0 0 0 0 0 0 0 1 0 1 2 1 0 0 0 0 0 0 0 0 0 0 0
0 0 0 0 0 0 0 0 0 0 0 0 0 0 0 0 0 0 0 0 0 0 0 0 0 0 0 0 0 0 0 0 0 1 0 1 2 1 0 0 0 0 0 0 0 0 0 0 0

GEFSSGP_con_prob3kmehi_072.txt.gz
EHI
0 0 0 0 2 4 4 2 0 0 0 0 0 0 0 1 0 1 7 37 76 80 60 57 60 48 30 17 10 5 1 0 0 0 0 0 0 0 0 0 0 0 0 0 0 0 0 0 0
0 0 0 3 6 5 2 1 0 0 0 0 0 0 1 1 0 3 15 46 73 68 47 47 55 48 32 19 12 7 3 1 0 0 0 0 0 0 0 0 0 0 0 0 0 0 0 0 0
0 0 0 5 11 7 1 0 0 0 0 0 0 1 2 1 1 6 24 52 68 53 35 43 53 48 33 21 13 9 5 3 2 2 1 0 0 0 0 0 0 0 0 0 0 0 0 0 0
1 1 1 4 7 5 1 0 0 0 0 0 2 5 4 1 1 7 23 48 59 47 36 44 54 49 32 19 12 8 5 5 5 6 4 3 2 1 1 1 1 1 0 0 0 0 0 0 0
0 0 1 1 1 1 0 0 0 0 0 0 5 11 9 2 2 6 16 34 48 50 45 46 52 47 30 18 11 8 6 6 7 9 8 7 7 5 4 4 5 4 3 1 1 0 0 0 0
0 0 0 0 0 0 0 0 0 0 0 0 5 12 11 4 2 5 10 20 39 57 56 48 47 41 28 18 12 8 7 6 6 8 8 8 8 7 6 7 8 9 8 5 3 2 1 0 0
0 0 0 0 0 0 0 0 0 0 0 0 3 9 10 7 4 4 7 15 39 64 63 47 39 34 24 17 13 9 7 6 5 5 6 6 6 6 8 11 12 14 15 13 9 6 4 2 1
0 0 0 0 0 0 0 0 0 0 1 2 4 8 10 9 5 3 4 15 41 67 64 43 34 28 18 14 15 13 9 8 7 6 5 5 4 6 10 16 20 23 24 21 15 12 10 7 5
0 0 0 0 0 0 0 0 0 1 5 8 11 13 12 9 7 5 5 15 41 66 63 46 39 29 14 15 23 22 17 17 15 13 14 12 7 7 14 26 38 40 35 30 24 21 18 12 7
0 0 0 0 0 0 0 0 1 4 10 15 17 16 12 12 15 13 11 21 44 62 59 54 51 35 16 23 38 33 27 33 29 27 34 31 18 11 20 45 62 60 51 43 37 32 26 16 7
0 0 0 0 0 0 1 2 3 7 12 17 19 16 12 17 25 27 27 39 56 58 51 57 61 44 25 33 47 40 37 51 49 44 55 55 38 27 35 60 77 74 64 54 46 40 31 18 9
0 0 0 0 0 0 1 3 6 10 14 19 23 23 21 26 35 41 49 61 65 56 47 57 69 60 44 46 53 47 46 59 64 63 69 71 60 50 55 69 79 76 68 57 49 46 37 23 14
0 0 0 0 0 0 2 4 7 13 19 24 34 41 42 45 50 57 65 72 69 58 54 65 75 74 66 63 62 56 55 62 68 73 76 77 75 72 72 75 76 75 70 60 52 49 44 32 24
0 0 0 0 0 1 3 5 7 13 22 32 48 62 68 70 73 76 79 79 75 68 69 76 80 80 79 75 70 63 61 64 68 72 74 75 79 81 78 74 71 70 67 61 55 50 46 37 30
0 0 0 0 0 1 4 8 12 16 24 39 56 72 82 87 90 91 91 88 84 81 84 84 81 82 83 80 74 65 59 60 63 65 68 70 73 75 72 67 63 59 57 56 53 47 39 30 25
0 0 0 0 0 0 3 12 19 23 31 44 60 72 80 87 89 90 90 89 87 87 90 88 83 83 84 78 69 58 50 48 50 52 56 60 62 62 61 57 50 45 43 43 42 38 29 21 17
0 0 0 0 0 1 6 17 24 27 37 51 61 66 69 72 74 76 78 77 78 82 84 84 84 83 78 68 57 46 39 37 37 38 42 48 50 49 48 45 38 32 30 30 28 27 23 18 15
0 0 0 0 0 2 11 22 25 26 36 48 54 54 52 52 54 59 63 62 64 70 74 77 79 77 68 57 48 42 38 35 32 31 33 37 38 34 33 33 30 25 21 20 20 20 18 15 14
0 0 0 0 1 4 14 24 26 26 33 40 41 38 34 33 36 42 46 46 48 53 59 64 65 62 54 47 44 45 44 38 32 27 26 27 24 20 18 20 22 20 16 15 15 14 12 10 10
0 0 0 0 1 4 11 23 28 26 27 30 28 23 19 19 22 24 26 28 30 33 38 43 44 41 35 32 35 38 39 35 28 23 20 17 14 10 8 13 16 14 11 10 10 9 8 6 6
0 0 0 0 1 2 6 18 27 24 18 16 15 12 9 11 12 10 11 13 15 17 20 22 24 21 18 18 20 23 25 24 21 19 16 12 8 4 5 8 10 8 6 6 6 6 5 4 4
0 0 0 0 0 0 2 11 21 19 11 8 7 6 5 6 6 5 5 6 7 8 8 10 12 12 11 12 12 12 12 12 11 11 10 8 4 2 2 4 5 4 3 3 4 4 4 3 2
0 0 0 0 0 0 0 6 13 12 8 8 9 6 3 2 3 3 3 3 3 2 3 6 12 14 14 14 12 9 7 5 4 4 4 4 3 2 1 1 3 3 2 2 3 4 4 3 3
0 0 0 0 0 0 0 2 6 6 6 10 11 7 2 0 1 1 1 2 2 2 2 7 16 23 24 22 17 12 8 4 2 1 1 2 2 1 0 1 2 2 2 1 2 5 5 4 4
0 0 0 0 0 0 0 1 3 5 8 10 10 6 2 0 0 0 0 2 3 4 6 10 19 27 28 25 21 15 9 5 1 0 0 0 0 0 0 1 2 2 1 1 2 4 4 3 4
0 0 0 0 0 0 0 1 2 4 8 8 6 4 2 0 0 0 0 1 2 5 8 11 16 22 24 22 19 13 7 3 1 0 0 0 0 0 0 0 1 1 0 0 1 2 3 3 3
0 0 0 0 0 0 1 2 2 2 4 4 3 3 2 0 0 0 0 0 0 3 6 9 11 14 16 16 13 9 4 1 0 0 0 0 0 0 0 0 0 0 0 0 0 1 1 2 3
0 0 0 0 0 0 0 1 2 1 1 1 1 1 1 0 0 0 0 0 0 1 3 4 5 6 8 8 7 4 2 1 0 0 0 0 0 0 0 0 0 0 0 0 0 0 0 1 1
0 0 0 0 0 0 0 1 1 1 0 0 0 0 0 0 0 0 0 0 0 0 1 1 1 2 2 2 2 1 1 1 0 0 0 0 0 0 0 0 0 0 0 0 0 0 0 0 0
0 0 0 0 0 0 0 0 1 0 0 0 0 0 0 0 0 0 0 0 0 0 0 0 0 0 0 0 0 1 1 1 1 0 0 0 0 0 0 0 0 0 0 0 0 0 0 0 0

GEFSSGP_con_prob3kmehi_078.txt.gz
EHI
4 2 0 0 0 0 0 0 0 0 0 1 1 1 1 1 1 2 6 16 38 54 56 67 87 91 77 58 41 25 14 8 4 2 1 0 0 0 0 0 0 0 0 0 0 0 0 0 0
2 1 0 0 0 0 0 0 1 1 1 2 2 1 1 1 4 6 10 23 45 57 57 65 86 92 80 63 46 28 16 9 4 1 0 0 0 0 0 0 0 0 0 0 0 0 0 0 0
0 0 0 0 0 1 3 4 4 3 2 2 1 1 0 2 8 14 20 34 51 57 56 66 86 94 86 72 54 35 22 14 6 2 0 0 0 0 0 0 0 0 0 0 0 0 0 0 0
0 0 0 0 1 3 8 9 7 4 3 1 1 1 1 9 22 30 30 36 51 57 58 70 88 95 90 78 61 43 31 23 14 6 2 1 1 1 0 0 0 0 0 0 0 0 0 0 0
0 0 0 0 1 5 8 7 5 5 5 4 3 3 5 19 42 46 32 30 45 57 62 73 87 93 89 79 65 52 40 31 22 14 7 3 3 3 3 3 2 2 2 2 1 0 0 0 0
0 0 0 0 1 2 3 2 3 7 9 8 6 4 7 24 44 42 27 24 36 50 59 67 78 85 85 78 68 57 47 37 29 22 14 9 7 6 7 8 6 6 6 5 2 1 0 0 0
0 0 0 0 0 0 0 1 5 10 12 9 6 4 6 20 34 36 30 26 27 36 46 54 62 69 71 69 63 56 47 40 34 27 21 15 11 9 10 11 9 9 10 8 4 2 2 1 1
0 0 0 0 0 0 0 2 7 12 14 11 8 4 5 18 36 47 46 37 27 25 32 40 46 49 49 48 46 43 40 36 30 25 22 17 12 8 9 11 10 10 12 11 7 5 5 4 3
0 0 0 0 0 0 2 4 7 11 16 17 13 10 11 23 46 63 63 51 35 24 22 28 33 34 32 28 25 24 25 23 19 16 16 14 8 5 6 8 9 11 15 15 12 9 8 7 5
0 0 0 0 0 1 4 6 8 13 18 20 20 19 21 33 53 68 68 57 41 27 19 18 21 24 23 19 14 13 13 12 9 8 8 7 4 2 3 4 7 12 17 18 17 16 15 14 12
0 0 0 0 0 2 5 8 13 19 23 24 27 29 32 40 52 63 65 57 43 29 19 15 14 16 17 16 13 11 9 7 6 5 4 4 4 2 1 2 6 12 20 24 26 27 26 24 21
0 0 0 0 1 5 8 13 22 33 37 38 40 42 43 46 51 59 63 59 49 38 29 23 18 15 15 16 17 15 11 9 9 8 7 9 8 5 3 4 8 16 27 35 36 35 32 28 24
0 0 0 1 3 8 14 21 32 48 55 56 58 61 60 59 61 64 67 66 59 54 48 43 37 31 28 29 30 28 23 20 19 18 16 17 16 13 11 10 12 19 30 37 36 31 28 24 22
0 0 0 1 4 10 19 28 40 56 67 71 74 75 74 73 71 71 71 69 65 63 61 59 56 50 46 46 45 40 36 33 30 27 23 21 20 19 18 15 13 16 22 26 25 21 18 17 17
0 0 0 1 3 8 18 31 43 57 71 78 80 80 78 76 72 69 68 65 63 62 61 61 61 56 51 48 44 39 37 34 29 25 21 20 20 19 17 13 10 11 14 16 15 13 12 12 12
0 0 0 1 2 6 14 27 40 54 67 73 75 73 70 67 63 60 58 56 55 57 57 57 55 51 44 37 31 28 26 23 18 17 17 17 17 15 11 8 6 7 10 11 10 10 10 10 9
0 0 0 1 3 5 12 24 37 49 58 61 58 54 52 51 49 46 44 44 44 46 49 48 44 38 31 24 18 16 14 11 10 11 11 11 10 8 6 4 4 4 5 7 8 8 8 7 7
0 0 0 1 4 7 14 25 35 41 43 43 38 33 31 32 31 28 28 30 31 33 34 33 28 21 16 13 9 7 6 5 5 5 5 4 3 2 2 1 1 1 2 4 5 5 4 4 4
0 0 1 3 5 8 15 23 27 28 25 24 21 17 15 15 14 13 15 17 19 20 20 18 14 9 6 4 4 3 3 2 2 1 1 1 0 0 0 0 0 0 1 1 2 2 1 2 2
0 0 1 3 4 6 11 15 15 14 13 11 9 7 6 6 4 5 7 9 9 9 9 8 6 3 1 1 2 2 2 1 1 0 0 0 0 0 0 0 0 0 0 0 0 0 0 1 1
0 0 1 2 2 3 5 6 6 6 7 6 4 2 2 2 2 2 3 3 4 3 2 2 1 0 0 0 1 1 1 1 0 0 0 0 0 0 0 0 0 0 0 0 0 0 0 0 0
0 0 0 1 1 1 1 1 2 4 5 4 3 1 0 1 1 1 1 1 2 2 1 0 0 0 0 0 0 0 0 0 0 0 0 0 0 0 0 0 0 0 0 0 0 0 0 0 0
0 0 0 0 0 0 0 0 1 2 3 2 1 0 0 1 1 1 0 0 1 1 0 0 0 0 0 0 0 0 0 0 0 0 0 0 0 0 0 0 0 0 0 0 0 0 0 0 0
0 0 0 0 0 0 0 0 0 1 1 1 0 0 0 0 0 1 0 0 0 0 0 0 0 0 0 0 0 0 0 0 0 0 0 0 0 0 0 0 0 0 0 0 0 0 0 0 0
0 0 0 0 0 0 0 0 0 0 0 1 0 0 0 0 0 0 0 0 0 0 0 0 0 0 0 0 0 0 0 0 0 0 0 0 0 0 0 0 0 0 0 0 0 0 0 0 0
0 0 0 0 0 0 0 0 0 0 0 0 0 0 0 0 0 0 0 0 0 0 0 0 0 0 0 0 0 0 0 0 0 0 0 0 0 0 0 0 0 0 0 0 0 0 0 0 0
0 0 0 0 0 0 0 0 0 0 0 0 0 0 1 0 0 0 0 0 0 0 0 0 0 0 0 0 0 0 0 0 0 0 0 0 0 0 0 0 0 0 0 0 0 0 0 0 0
0 0 0 0 0 0 0 0 0 0 0 0 0 0 0 0 0 0 0 0 0 0 0 0 0 0 0 0 0 0 0 0 0 0 0 0 0 0 0 0 0 0 0 0 0 0 0 0 0
0 0 0 0 0 0 0 0 0 0 0 0 0 0 0 0 0 0 0 0 0 0 0 0 0 0 0 0 0 0 0 0 0 0 0 0 0 0 0 0 0 0 0 0 0 0 0 0 0
0 0 0 0 0 0 0 0 0 0 0 0 0 0 0 0 0 0 0 0 0 0 0 0 0 0 0 0 0 0 0 0 0 0 0 0 0 0 0 0 0 0 0 0 0 0 0 0 0

GEFSSGP_con_prob3kmehi_084.txt.gz
EHI
0 0 0 0 0 0 0 0 0 0 0 0 0 0 1 2 1 0 2 9 24 34 28 32 53 68 70 67 62 58 57 60 60 58 53 43 31 19 11 7 5 3 1 0 0 0 0 0 0
0 0 0 0 0 0 0 0 1 1 0 0 0 1 2 3 1 0 3 11 27 35 30 32 52 67 69 65 60 56 55 54 51 47 40 31 21 14 9 5 2 1 0 0 0 0 0 0 0
0 0 0 0 0 0 0 1 2 1 0 0 0 1 3 3 1 1 6 18 33 37 28 34 54 66 65 60 55 52 47 41 36 31 22 15 10 8 5 2 0 0 0 0 0 0 0 0 0
0 0 0 0 0 0 1 2 2 1 0 1 1 1 3 3 2 4 12 29 43 39 29 38 60 69 64 56 48 43 35 26 22 18 13 9 6 5 3 1 0 0 0 0 0 0 0 0 0
0 0 0 0 0 0 0 1 1 0 0 1 1 2 3 3 3 9 19 35 49 47 36 44 64 72 67 57 47 36 27 18 13 12 10 8 5 3 2 1 0 0 0 0 0 0 0 0 0
0 0 0 0 0 0 0 0 0 1 1 1 1 2 5 5 5 11 21 34 48 53 45 45 57 64 63 58 46 35 25 17 11 9 7 5 2 1 1 0 0 0 0 0 0 0 0 0 0
0 0 0 0 0 0 0 0 1 2 2 1 0 2 6 7 7 11 20 32 44 50 45 40 42 46 50 48 43 35 26 16 10 7 5 3 1 0 0 0 0 0 0 0 0 0 0 0 0
0 0 0 0 0 0 0 0 1 3 4 2 1 2 8 13 14 17 23 31 36 37 35 34 35 36 37 37 36 33 24 16 11 7 4 2 0 0 0 0 0 0 0 0 0 0 0 0 0
0 0 0 0 0 0 0 1 3 5 5 4 4 11 22 29 28 27 28 25 22 21 22 28 34 35 34 32 31 28 23 16 11 7 4 1 0 0 0 1 1 1 0 0 0 0 1 1 2
0 0 0 0 0 0 0 2 4 6 7 8 14 29 46 47 38 30 24 17 12 11 13 20 28 33 32 29 26 24 20 14 8 5 4 2 1 1 0 1 2 1 1 1 0 1 2 4 7
0 0 0 0 0 0 2 4 7 9 10 13 25 46 61 55 39 29 21 15 12 11 11 14 19 25 26 21 20 21 18 13 7 5 4 4 3 2 2 1 2 2 2 2 2 2 4 6 9
0 0 0 1 2 4 7 11 15 18 19 24 39 56 61 53 40 31 25 20 17 15 14 14 15 17 17 14 14 16 15 11 8 6 5 5 5 5 6 6 5 5 4 3 3 3 3 4 5
0 0 0 1 4 8 14 20 24 29 35 45 58 65 62 51 40 33 31 28 24 20 18 17 16 15 12 10 10 10 8 6 6 7 6 6 8 9 10 10 9 7 6 5 4 3 2 2 1
0 0 0 1 2 8 18 26 30 35 46 60 67 69 63 51 40 36 36 34 29 26 23 19 18 15 11 10 8 6 4 3 4 6 5 5 8 9 9 10 9 7 7 7 6 5 3 3 2
0 0 0 0 0 5 15 25 29 33 46 60 64 63 58 49 41 37 37 34 29 29 28 23 18 14 11 8 6 5 4 2 2 3 3 3 5 4 5 6 6 4 5 6 6 5 5 3 3
0 0 0 0 0 3 8 16 21 27 40 53 56 52 47 41 36 32 29 27 24 24 27 24 18 15 12 6 3 3 2 1 1 1 1 2 2 1 1 3 3 2 1 2 3 3 4 3 2
0 0 0 0 0 1 4 8 15 21 31 40 43 41 37 32 27 20 17 17 15 15 17 17 14 11 8 4 1 1 0 0 0 0 0 1 1 1 0 1 1 0 0 0 1 1 2 3 2
0 0 0 0 0 1 3 7 11 15 20 24 25 27 26 23 18 11 7 7 7 7 7 7 7 5 3 2 1 0 0 0 0 0 0 0 0 0 0 0 0 0 0 0 0 0 1 2 1
0 0 0 0 1 2 4 5 5 7 9 10 11 13 14 12 9 5 3 2 2 2 2 2 2 1 0 0 0 0 0 0 0 0 0 0 0 0 0 0 0 0 0 0 0 0 0 0 0
0 0 0 0 1 2 3 2 1 3 4 4 4 4 4 4 2 1 1 1 1 1 0 0 0 0 0 0 0 0 0 0 0 0 0 0 0 0 0 0 0 0 0 0 0 0 0 0 0
0 0 0 0 1 2 2 1 0 1 2 3 3 1 1 1 0 0 0 0 0 0 0 0 0 0 0 0 0 0 0 0 0 0 0 0 0 0 0 0 0 0 0 0 0 0 0 0 0
0 0 0 0 0 1 1 0 0 0 1 2 2 1 0 0 0 0 0 0 0 0 0 0 0 0 0 0 0 0 0 0 0 0 0 0 0 0 0 0 0 0 0 0 0 0 0 0 0
0 0 0 0 0 0 0 0 0 0 0 1 1 0 0 0 0 0 0 0 0 0 0 0 0 0 0 0 0 0 0 0 0 0 0 0 0 0 0 0 0 0 0 0 0 0 0 0 0
0 0 0 0 0 0 0 0 0 0 0 0 0 0 0 0 0 0 0 0 0 0 0 0 0 0 0 0 0 0 0 0 0 0 0 0 0 0 0 0 0 0 0 0 0 0 0 0 0
0 0 0 0 0 0 0 0 0 0 0 0 0 0 0 0 0 0 0 0 0 0 0 0 0 0 0 0 0 0 0 0 0 0 0 0 0 0 0 0 0 0 0 0 0 0 0 0 0
0 0 0 0 0 0 0 0 0 0 0 0 0 0 0 0 0 0 0 0 0 0 0 0 0 0 0 0 0 0 0 0 0 0 0 0 0 0 0 0 0 0 0 0 0 0 0 0 0
0 0 0 0 0 0 0 0 0 0 0 0 0 0 0 0 0 0 0 0 0 0 0 0 0 0 0 0 0 0 0 0 0 0 0 0 0 0 0 0 0 0 0 0 0 0 0 0 0
0 0 0 0 0 0 0 0 0 0 0 0 0 0 0 0 0 0 0 0 0 0 0 0 0 0 0 0 0 0 0 0 0 0 0 0 0 0 0 0 0 0 0 0 0 0 0 0 0
0 0 0 0 0 0 0 0 0 0 0 0 0 0 0 0 0 0 0 0 0 0 0 0 0 0 0 0 0 0 0 0 0 0 0 0 0 0 0 0 0 0 0 0 0 0 0 0 0
0 0 0 0 0 0 0 0 0 0 0 0 0 0 0 0 0 0 0 0 0 0 0 0 0 0 0 0 0 0 0 0 0 0 0 0 0 0 0 0 0 0 0 0 0 0 0 0 0

GEFSSGP_con_prob3kmehi_090.txt.gz
EHI
3 2 1 1 0 0 0 0 0 0 0 0 0 0 0 1 2 6 11 15 21 26 25 21 18 15 13 16 24 34 40 41 42 42 36 24 13 7 5 4 2 1 0 0 0 0 0 0 0
1 1 0 0 0 0 0 0 0 0 0 0 0 0 0 2 4 7 10 13 17 21 22 20 18 17 16 19 28 39 45 45 44 42 34 22 12 7 5 4 2 0 0 0 0 0 0 0 0
0 0 0 0 0 0 0 0 0 0 0 0 0 0 3 5 6 7 10 13 12 13 16 20 20 17 18 22 31 42 46 44 41 35 25 15 9 6 4 2 1 0 0 0 0 0 0 0 0
0 0 0 0 0 0 0 0 0 0 0 0 0 2 7 11 10 10 12 13 10 6 10 19 21 18 18 21 28 35 36 33 28 21 14 9 6 5 2 1 0 0 0 0 0 0 0 0 0
0 0 0 0 0 0 0 0 1 1 0 0 0 4 12 18 19 15 12 10 7 3 8 17 20 17 16 18 21 24 23 19 14 9 6 4 4 2 1 0 0 0 0 0 0 0 0 0 0
0 0 0 0 0 0 0 0 1 2 1 0 1 6 16 27 29 22 13 7 4 3 7 14 15 13 12 13 14 15 14 11 6 3 2 1 1 1 0 0 0 0 0 0 0 0 0 0 0
0 0 0 0 0 0 0 0 1 4 4 2 2 7 20 36 40 30 20 11 6 3 5 8 9 9 7 7 7 8 8 7 3 1 0 0 0 0 0 0 1 1 1 1 1 0 0 0 0
0 0 0 0 0 0 0 0 1 4 7 8 11 17 30 47 51 43 32 22 12 7 5 5 5 4 3 3 3 3 4 5 3 1 0 0 0 0 0 1 2 3 3 3 2 1 1 0 0
0 0 0 0 0 0 0 1 1 4 8 14 24 34 44 56 60 54 43 31 22 15 9 6 4 2 0 1 2 2 3 3 2 2 1 1 1 1 2 4 5 6 5 4 3 3 3 1 1
0 0 0 0 0 0 1 2 3 5 9 19 31 41 50 56 56 51 41 32 28 22 13 8 5 3 2 3 4 4 5 5 3 3 3 3 3 2 4 8 8 6 5 4 4 4 4 3 3
0 0 0 0 0 0 1 3 5 9 14 24 34 39 42 45 42 36 30 25 24 22 15 11 9 8 8 10 10 10 10 10 8 6 8 8 6 6 8 10 10 8 7 6 6 6 6 5 6
0 0 0 0 0 0 1 4 9 17 24 31 37 37 34 33 30 24 21 19 19 18 16 14 15 16 18 19 19 17 17 16 13 13 13 12 10 10 13 15 13 11 10 9 10 12 11 10 11
0 0 0 0 0 0 1 5 13 23 30 35 39 37 32 30 28 24 21 20 18 16 16 17 19 22 24 24 24 22 20 17 15 17 17 14 13 13 16 19 17 14 13 12 12 14 16 19 20
0 0 0 0 0 0 1 5 14 25 31 35 40 40 37 36 34 31 30 28 23 19 18 19 21 24 23 22 21 21 18 15 15 16 15 13 11 13 16 18 17 18 18 17 13 13 19 23 22
0 0 0 0 0 0 1 4 14 25 33 38 42 44 44 43 41 38 39 39 34 28 24 23 23 24 21 16 13 13 13 14 13 11 10 9 8 10 12 12 13 15 17 16 12 12 18 19 18
0 0 0 0 0 0 0 5 15 25 32 39 42 42 44 46 43 39 39 40 39 34 29 26 26 25 20 13 10 9 11 13 11 8 7 7 6 7 8 7 7 7 8 9 7 9 13 14 14
0 0 0 0 0 0 0 4 13 21 28 35 38 35 36 38 36 32 33 35 35 33 30 27 27 25 18 12 10 9 10 10 8 7 7 6 6 6 5 5 4 3 4 4 4 5 8 10 11
0 0 0 0 0 0 0 3 8 13 20 26 27 27 27 26 23 24 27 30 29 27 25 25 25 22 15 10 8 7 7 6 6 5 5 4 4 4 4 4 3 3 3 4 3 3 5 8 8
0 0 0 0 0 0 1 3 4 6 11 15 17 18 19 16 14 16 20 21 19 19 20 21 20 17 11 7 5 3 3 2 2 2 2 1 1 1 2 2 2 2 2 2 2 3 4 6 6
0 0 0 0 0 0 1 2 2 3 6 7 9 11 11 9 7 8 10 9 8 10 13 14 13 10 7 4 3 2 2 1 1 1 1 1 0 1 1 1 1 1 1 1 1 1 2 3 2
0 0 0 0 0 0 0 0 0 1 2 4 4 5 5 4 4 4 3 1 2 4 5 5 6 5 4 2 1 0 1 1 0 0 1 1 1 1 0 0 0 0 0 0 0 0 1 1 0
0 0 0 0 0 0 0 0 0 0 1 1 1 2 2 2 3 2 1 0 0 1 1 1 3 4 4 3 2 1 0 0 0 0 1 1 1 1 0 0 0 0 0 0 0 0 0 0 0
0 0 0 0 0 0 0 0 0 0 0 0 1 1 1 1 2 1 0 0 0 0 0 1 3 5 5 5 4 3 1 0 0 1 1 2 1 0 0 0 0 0 0 0 0 0 0 0 0
0 0 0 0 0 0 0 0 0 0 0 0 0 1 2 2 2 2 1 0 0 0 0 2 4 6 7 6 5 4 3 1 1 1 2 2 1 0 0 0 0 0 0 0 0 0 0 0 0
0 0 0 0 0 0 0 0 0 0 0 0 0 1 3 4 3 3 2 1 1 1 1 4 6 7 6 5 5 4 3 3 2 2 1 1 0 0 0 0 0 0 0 0 0 0 0 0 0
0 0 0 0 0 0 0 0 0 0 0 0 0 1 3 4 4 3 3 2 2 2 2 4 6 6 5 4 4 4 3 3 2 1 0 0 0 0 0 0 0 0 0 0 0 0 0 0 0
0 0 0 0 0 0 0 0 0 0 0 0 0 1 2 2 3 3 3 2 2 1 1 2 2 3 3 3 3 3 3 2 1 1 0 0 0 0 0 0 0 0 0 0 0 0 0 0 0
0 0 0 0 0 0 0 0 0 0 0 0 0 1 1 1 2 3 3 3 2 1 0 0 0 1 2 2 1 2 1 1 0 0 0 0 0 0 0 0 0 0 0 0 0 0 0 0 0
0 0 0 0 0 0 0 0 0 0 0 0 0 0 0 0 1 2 3 3 2 1 0 1 0 0 1 1 1 0 0 0 0 0 0 0 0 0 0 0 0 0 0 0 0 0 0 0 0
0 0 0 0 0 0 0 0 0 0 0 0 0 0 0 0 0 1 2 2 1 0 0 1 0 0 1 1 0 0 0 0 0 0 0 0 0 0 0 0 0 0 0 0 0 0 0 0 0